User: anonymous   Login
Location: The Jewett Observatory
(46.7288°N, 117.1525°W)
Time: 01:42:49
(UTC-07:00)
Language:

Cosmos 1633 - Orbit

View from above orbital plane
View from above orbital plane
View from above satellite
View from above satellite

Ground track
Ground track

The orbit data is extracted from the following two-line orbital elements,

1 15592U 85020A   15208.44621602  .00002425  00000-0  97217-4 0  9991
2 15592 082.5406 289.5939 0016963 094.0652 000.5032 15.24385554658905
Epoch (UTC): 27 July 2015 10:42:33
Eccentricity: 0.0016963
inclination: 82.5406°
perigee height: 481 km
apogee height: 504 km
right ascension of ascending node: 289.5939°
argument of perigee: 94.0652°
revolutions per day: 15.24385554
mean anomaly at epoch: 0.5032°
orbit number at epoch: 65890

The dashed part of the orbit path shows where the satellite is in the earth's shadow,  

DLR